CAT,Max TemperatureF,Mean TemperatureF,Min TemperatureF,Max Dew PointF,MeanDew PointF,Min DewpointF,Max Humidity, Mean Humidity, Min Humidity, Max Sea Level PressureIn, Mean Sea Level PressureIn, Min Sea Level PressureIn, Max VisibilityMiles, Mean VisibilityMiles, Min VisibilityMiles, Max Wind SpeedMPH, Mean Wind SpeedMPH, Max Gust SpeedMPH,PrecipitationIn, CloudCover, Events, WindDirDegrees
2013-5-1,81,66,52,54,48,44,77,48,17,30.36,30.26,30.18,6,6,6,22,12,,0.00,,,117
2013-5-2,82,69,56,48,45,39,63,40,19,30.27,30.19,30.12,6,6,6,16,11,,0.00,,,109
2013-5-3,84,66,49,45,40,34,58,36,15,30.21,30.14,30.06,6,6,6,12,7,,0.00,,,124
2013-5-4,84,65,46,45,40,36,59,38,20,30.24,30.16,30.12,6,6,6,9,5,,0.00,,,146
2013-5-5,83,68,54,45,37,28,39,28,21,30.30,30.22,30.18,6,6,6,14,10,,0.00,,,139
2013-5-6,81,66,50,59,43,30,83,40,26,30.36,30.27,30.21,6,6,6,22,10,,0.00,,,120
2013-5-7,80,68,56,46,43,37,55,42,30,30.36,30.26,30.18,6,6,6,17,10,,0.00,,,113
2013-5-8,81,66,50,46,42,37,71,44,16,30.27,30.19,30.09,6,6,6,10,6,,0.00,1,,132
2013-5-9,84,65,46,45,40,36,66,41,12,30.15,30.09,30.01,6,6,6,10,3,,0.00,,,141
2013-5-10,87,70,52,50,41,37,62,38,12,30.15,30.09,30.04,6,6,6,10,4,,0.00,,,32
2013-5-11,86,70,53,48,43,37,55,38,14,30.18,30.11,30.06,6,6,6,12,4,,0.00,,,350
2013-5-12,89,72,54,48,42,28,59,34,11,30.21,30.16,30.12,6,6,6,9,4,,0.00,,,131
2013-5-13,87,70,53,55,48,39,72,46,29,30.27,30.20,30.15,6,6,6,14,6,,0.00,1,,95
2013-5-14,86,72,57,55,50,44,63,46,29,30.27,30.19,30.12,6,6,6,14,9,,0.00,2,,100
2013-5-15,84,70,57,54,48,41,72,46,22,30.18,30.11,30.04,6,6,6,9,6,,0.00,1,,69
2013-5-16,85,72,59,50,48,46,67,43,27,30.09,30.06,29.98,6,6,6,10,5,,0.00,,,42
2013-5-17,87,71,55,52,47,39,63,40,16,30.15,30.10,30.06,6,6,6,8,5,,0.00,,,62
2013-5-18,86,74,62,63,48,39,50,36,25,30.27,30.19,30.15,6,6,6,17,12,,0.00,2,,106
2013-5-19,79,70,61,55,53,45,68,53,34,30.30,30.24,30.15,6,6,6,16,11,,0.00,,,94
2013-5-20,84,70,55,57,52,46,82,55,26,30.24,30.16,30.09,6,6,6,13,8,,0.00,2,,115
2013-5-21,81,66,52,50,47,45,72,49,30,30.24,30.16,30.09,6,6,6,15,7,,0.00,,,128
2013-5-22,81,66,50,52,43,37,59,37,17,30.24,30.16,30.09,6,6,6,13,8,,0.00,,,139
2013-5-23,84,67,50,45,41,36,54,35,17,30.21,30.16,30.09,6,6,6,16,9,,0.00,,,127
2013-5-24,84,68,51,45,40,34,47,34,14,30.24,30.18,30.12,6,6,6,15,8,,0.00,,,121
2013-5-25,82,66,51,45,40,36,54,35,21,30.30,30.23,30.15,6,6,6,13,8,,0.00,,,114
2013-5-26,81,66,50,43,39,34,58,37,13,30.24,30.16,30.06,6,6,6,13,6,,0.00,,,119
2013-5-27,82,64,45,46,38,34,66,40,12,30.18,30.11,30.04,6,6,6,8,4,,0.00,,,43
2013-5-28,86,66,46,48,41,34,76,41,14,30.12,30.08,30.01,6,6,6,6,2,,0.00,,,85
2013-5-29,89,68,48,50,43,36,76,40,13,30.15,30.08,30.04,6,6,6,6,3,,0.00,,,80
2013-5-30,87,68,48,48,43,37,76,42,14,30.15,30.09,30.04,6,6,6,7,3,,0.00,,,44
2013-5-31,87,70,53,52,45,39,63,42,14,30.15,30.09,30.04,6,6,6,9,4,,0.00,,,55